This is the latest recevied weather packets stored in our database for station/object W1LBM. If no packets are shown the sender has not sent any weather packets the latest 10 day(s).
| Time | Temp. | Humidity | Pressure | Rain* | Wind** | Luminosity | Snow |
|---|---|---|---|---|---|---|---|
| 1777686293 | 8.33° C | 62% | 1014.7 hPa | 0 mm | - | 0 W/m² | - |
| 1777685990 | 8.33° C | 64% | 1014.4 hPa | 0 mm | - | 0 W/m² | - |
| 1777685686 | 8.33° C | 62% | 1014.4 hPa | 0 mm | - | 0 W/m² | - |
| 1777685382 | 8.33° C | 62% | 1014.5 hPa | 0 mm | - | 0 W/m² | - |
| 1777685080 | 8.33° C | 65% | 1014.5 hPa | 0 mm | - | 0 W/m² | - |
| 1777684777 | 8.33° C | 64% | 1014.4 hPa | 0 mm | - | 0 W/m² | - |
| 1777684473 | 8.89° C | 63% | 1014.4 hPa | 0 mm | - | 0 W/m² | - |
| 1777684170 | 8.89° C | 63% | 1014.4 hPa | 0 mm | - | 0 W/m² | - |
| 1777683867 | 8.89° C | 63% | 1014.4 hPa | 0 mm | - | 0 W/m² | - |
| 1777683563 | 9.44° C | 63% | 1014.3 hPa | 0 mm | - | 0 W/m² | - |
| 1777683261 | 9.44° C | 64% | 1014 hPa | 0 mm | - | 0 W/m² | - |
| 1777682960 | 9.44° C | 67% | 1013.9 hPa | 0 mm | - | 0 W/m² | - |
| 1777682655 | 9.44° C | 61% | 1014.1 hPa | 0 mm | - | 0 W/m² | - |
| 1777682352 | 10° C | 53% | 1013.9 hPa | 0 mm | - | 0 W/m² | - |
| 1777682050 | 10.56° C | 52% | 1013.8 hPa | 0 mm | - | 0 W/m² | - |
| 1777681745 | 10.56° C | 49% | 1014 hPa | 0 mm | - | 0 W/m² | - |
| 1777681443 | 11.11° C | 50% | 1013.7 hPa | 0 mm | - | 0 W/m² | - |
| 1777681141 | 11.11° C | 50% | 1013.8 hPa | 0 mm | - | 0 W/m² | - |
| 1777680838 | 11.67° C | 47% | 1013.6 hPa | 0 mm | - | 0 W/m² | - |
| 1777680535 | 11.67° C | 47% | 1013.6 hPa | 0 mm | - | 0 W/m² | - |
| 1777680234 | 12.22° C | 46% | 1013.5 hPa | 0 mm | - | 0 W/m² | - |
| 1777679929 | 12.22° C | 44% | 1013.3 hPa | 0 mm | - | 0 W/m² | - |
| 1777679625 | 12.78° C | 43% | 1013.4 hPa | 0 mm | - | 1 W/m² | - |
| 1777679320 | 13.33° C | 41% | 1013.1 hPa | 0 mm | - | 2 W/m² | - |
| 1777679018 | 13.89° C | 40% | 1013 hPa | 0 mm | - | 3 W/m² | - |
* Rain latest hour (hover to see other rain measurements)
** Current wind speed in m/s (hover to see current wind gust speed)